| time (UTC) | temp C | wind direction | speed KPH | gust KPH | rain 1hr cm | rain 24hr cm | rain mn cm | humidity % | barometer mb |
| 20260906201505 | 38 | 171 | 3.2 | 11.3 | 0.00 | 0.00 | 0.00 | 36 | 1009.8 |
| 20260906200002 | 38 | 53 | 4.8 | 11.3 | 0.00 | 0.00 | 0.00 | 36 | 1010.0 |
| 20260906194600 | 38 | 37 | 3.2 | 9.7 | 0.00 | 0.00 | 0.00 | 36 | 1010.2 |
| 20260906193059 | 38 | 274 | 3.2 | 11.3 | 0.00 | 0.00 | 0.00 | 36 | 1010.5 |
| 20260906191556 | 37 | 44 | 6.4 | 11.3 | 0.00 | 0.00 | 0.00 | 38 | 1010.6 |
| 20260906184619 | 36 | 108 | 6.4 | 12.9 | 0.00 | 0.00 | 0.00 | 41 | 1011.1 |
| 20260906183052 | 36 | 83 | 0.0 | 8.0 | 0.00 | 0.00 | 0.00 | 42 | 1011.3 |
| 20260906181553 | 36 | 152 | 3.2 | 8.0 | 0.00 | 0.00 | 0.00 | 40 | 1011.5 |
| 20260906180050 | 37 | 217 | 0.0 | 11.3 | 0.00 | 0.00 | 0.00 | 38 | 1011.8 |
| 20260906174546 | 37 | 189 | 3.2 | 11.3 | 0.00 | 0.00 | 0.00 | 39 | 1012.0 |
| 20260906173043 | 36 | 138 | 3.2 | 9.7 | 0.00 | 0.00 | 0.00 | 44 | 1012.3 |
| 20260906171542 | 35 | 42 | 1.6 | 6.4 | 0.00 | 0.00 | 0.00 | 42 | 1012.6 |
| 20260906170036 | 35 | 238 | 3.2 | 8.0 | 0.00 | 0.00 | 0.00 | 42 | 1012.8 |
| 20260906164539 | 35 | 301 | 0.0 | 6.4 | 0.00 | 0.00 | 0.00 | 44 | 1012.9 |
| 20260906163033 | 34 | 48 | 3.2 | 8.0 | 0.00 | 0.00 | 0.00 | 46 | 1013.0 |
| 20260906161532 | 34 | 20 | 3.2 | 9.7 | 0.00 | 0.00 | 0.00 | 46 | 1013.0 |
| 20260906160027 | 33 | 23 | 4.8 | 9.7 | 0.00 | 0.00 | 0.00 | 48 | 1013.1 |
| 20260906154528 | 33 | 300 | 4.8 | 11.3 | 0.00 | 0.00 | 0.00 | 50 | 1013.1 |
| 20260906153026 | 32 | 333 | 4.8 | 9.7 | 0.00 | 0.00 | 0.00 | 51 | 1013.0 |
| 20260906151522 | 33 | 327 | 3.2 | 6.4 | 0.00 | 0.00 | 0.00 | 50 | 1012.9 |
| 20260906150020 | 33 | 301 | 1.6 | 4.8 | 0.00 | 0.00 | 0.00 | 49 | 1012.9 |
| 20260906144519 | 32 | 162 | 0.0 | 3.2 | 0.00 | 0.00 | 0.00 | 51 | 1012.8 |
| 20260906143014 | 31 | 240 | 1.6 | 3.2 | 0.00 | 0.00 | 0.00 | 53 | 1012.8 |
| 20260906141519 | 30 | 150 | 0.0 | 1.6 | 0.00 | 0.00 | 0.00 | 59 | 1012.7 |
| 20260906140004 | 29 | 153 | 0.0 | 1.6 | 0.00 | 0.00 | 0.00 | 60 | 1012.6 |
| 20260906134500 | 28 | 205 | 0.0 | 1.6 | 0.00 | 0.00 | 0.00 | 63 | 1012.5 |
| 20260906133057 | 27 | 155 | 0.0 | 3.2 | 0.00 | 0.00 | 0.00 | 69 | 1012.3 |
| 20260906131553 | 25 | 155 | 0.0 | 6.4 | 0.00 | 0.00 | 0.00 | 74 | 1012.3 |
| 20260906130112 | 23 | 150 | 1.6 | 3.2 | 0.00 | 0.00 | 0.00 | 78 | 1012.2 |
| 20260906124550 | 22 | 188 | 0.0 | 1.6 | 0.00 | 0.00 | 0.00 | 80 | 1011.9 |
| 20260906123047 | 22 | 187 | 0.0 | 0.0 | 0.00 | 0.00 | 0.00 | 80 | 1011.8 |
| 20260906121553 | 22 | 187 | 0.0 | 0.0 | 0.00 | 0.00 | 0.00 | 80 | 1011.5 |
| 20260906120046 | 22 | 187 | 0.0 | 0.0 | 0.00 | 0.00 | 0.00 | 80 | 1011.5 |
| 20260906114543 | 22 | 187 | 0.0 | 0.0 | 0.00 | 0.00 | 0.00 | 81 | 1011.3 |
| 20260906113049 | 22 | 189 | 0.0 | 0.0 | 0.00 | 0.00 | 0.00 | 81 | 1011.3 |
| 20260906111538 | 22 | 189 | 0.0 | 0.0 | 0.00 | 0.00 | 0.00 | 80 | 1011.2 |
| 20260906110034 | 22 | 189 | 0.0 | 0.0 | 0.00 | 0.00 | 0.00 | 79 | 1011.2 |
| 20260906104535 | 23 | 189 | 0.0 | 0.0 | 0.00 | 0.00 | 0.00 | 78 | 1010.9 |
| 20260906103042 | 23 | 189 | 0.0 | 0.0 | 0.00 | 0.00 | 0.00 | 78 | 1010.8 |
| 20260906101530 | 23 | 189 | 0.0 | 0.0 | 0.00 | 0.00 | 0.00 | 78 | 1010.9 |
| 20260906100031 | 23 | 217 | 0.0 | 3.2 | 0.00 | 0.00 | 0.00 | 78 | 1010.9 |
| 20260906094527 | 23 | 175 | 0.0 | 0.0 | 0.00 | 0.00 | 0.00 | 77 | 1010.8 |
| 20260906093027 | 23 | 158 | 0.0 | 1.6 | 0.00 | 0.00 | 0.00 | 78 | 1010.8 |
| 20260906091526 | 23 | 205 | 0.0 | 0.0 | 0.00 | 0.00 | 0.00 | 79 | 1010.9 |
| 20260906090025 | 23 | 205 | 0.0 | 0.0 | 0.00 | 0.00 | 0.00 | 78 | 1010.7 |
| 20260906084524 | 23 | 187 | 0.0 | 0.0 | 0.00 | 0.00 | 0.00 | 78 | 1010.6 |
| 20260906083021 | 23 | 187 | 0.0 | 0.0 | 0.00 | 0.00 | 0.00 | 77 | 1010.6 |
| 20260906081520 | 23 | 187 | 0.0 | 1.6 | 0.00 | 0.00 | 0.00 | 75 | 1010.4 |
| 20260906080159 | 24 | 188 | 0.0 | 0.0 | 0.00 | 0.00 | 0.00 | 73 | 1010.5 |
| 20260906074514 | 24 | 188 | 1.6 | 3.2 | 0.00 | 0.00 | 0.00 | 72 | 1010.4 |
| 20260906073012 | 24 | 195 | 3.2 | 4.8 | 0.00 | 0.00 | 0.00 | 72 | 1010.3 |
| 20260906071511 | 25 | 203 | 1.6 | 3.2 | 0.00 | 0.00 | 0.00 | 72 | 1010.4 |
| 20260906070010 | 25 | 176 | 1.6 | 3.2 | 0.00 | 0.00 | 0.00 | 71 | 1010.4 |
| 20260906064509 | 25 | 199 | 0.0 | 3.2 | 0.00 | 0.00 | 0.00 | 69 | 1010.6 |
| 20260906063008 | 25 | 186 | 1.6 | 4.8 | 0.00 | 0.00 | 0.00 | 71 | 1010.5 |
| 20260906061516 | 24 | 187 | 1.6 | 3.2 | 0.00 | 0.00 | 0.00 | 74 | 1010.6 |
| 20260906060002 | 24 | 214 | 0.0 | 1.6 | 0.00 | 0.00 | 0.00 | 73 | 1010.5 |
| 20260906054504 | 24 | 214 | 0.0 | 0.0 | 0.00 | 0.00 | 0.00 | 72 | 1010.5 |
| 20260906053059 | 24 | 214 | 0.0 | 1.6 | 0.00 | 0.00 | 0.00 | 73 | 1010.6 |
| 20260906051605 | 25 | 214 | 0.0 | 1.6 | 0.00 | 0.00 | 0.00 | 72 | 1010.5 |
| 20260906050051 | 25 | 214 | 0.0 | 1.6 | 0.00 | 0.00 | 0.00 | 71 | 1010.4 |
| 20260906044551 | 26 | 214 | 0.0 | 0.0 | 0.00 | 0.00 | 0.00 | 69 | 1010.4 |
| 20260906043051 | 26 | 214 | 0.0 | 1.6 | 0.00 | 0.00 | 0.00 | 67 | 1010.3 |
| 20260906041551 | 26 | 214 | 0.0 | 1.6 | 0.00 | 0.00 | 0.00 | 65 | 1010.3 |
| 20260906040050 | 27 | 214 | 1.6 | 3.2 | 0.00 | 0.00 | 0.00 | 62 | 1010.3 |
| 20260906034556 | 27 | 214 | 0.0 | 3.2 | 0.00 | 0.00 | 0.00 | 62 | 1010.5 |
| 20260906033051 | 27 | 210 | 1.6 | 3.2 | 0.00 | 0.00 | 0.00 | 61 | 1010.3 |
| 20260906031548 | 27 | 214 | 3.2 | 3.2 | 0.00 | 0.00 | 0.00 | 61 | 1010.2 |
| 20260906030049 | 27 | 206 | 1.6 | 4.8 | 0.00 | 0.00 | 0.00 | 63 | 1010.1 |
| 20260906024547 | 27 | 209 | 0.0 | 1.6 | 0.00 | 0.00 | 0.00 | 62 | 1010.0 |
| 20260906023050 | 28 | 208 | 0.0 | 1.6 | 0.00 | 0.00 | 0.00 | 60 | 1009.9 |
| 20260906021547 | 28 | 209 | 3.2 | 3.2 | 0.00 | 0.00 | 0.00 | 59 | 1009.4 |
| 20260906020045 | 28 | 177 | 0.0 | 3.2 | 0.00 | 0.00 | 0.00 | 60 | 1009.3 |
| 20260906014549 | 28 | 155 | 0.0 | 0.0 | 0.00 | 0.00 | 0.00 | 60 | 1009.0 |
| 20260906013046 | 29 | 155 | 0.0 | 0.0 | 0.00 | 0.00 | 0.00 | 59 | 1008.9 |
| 20260906011543 | 30 | 155 | 0.0 | 0.0 | 0.00 | 0.00 | 0.00 | 56 | 1009.0 |
| 20260906010043 | 31 | 154 | 0.0 | 0.0 | 0.00 | 0.00 | 0.00 | 51 | 1008.9 |
| 20260906004542 | 33 | 153 | 0.0 | 0.0 | 0.00 | 0.00 | 0.00 | 45 | 1008.8 |
| 20260906003041 | 35 | 153 | 0.0 | 0.0 | 0.00 | 0.00 | 0.00 | 41 | 1008.8 |
| 20260906001540 | 36 | 172 | 0.0 | 4.8 | 0.00 | 0.00 | 0.00 | 38 | 1008.9 |
| 20260906000040 | 37 | 131 | 0.0 | 8.0 | 0.00 | 0.00 | 0.00 | 36 | 1008.8 |
| 20260905234541 | 37 | 136 | 1.6 | 6.4 | 0.00 | 0.00 | 0.00 | 35 | 1008.7 |
| 20260905233040 | 38 | 153 | 4.8 | 9.7 | 0.00 | 0.00 | 0.00 | 34 | 1008.4 |
| 20260905231539 | 38 | 157 | 4.8 | 9.7 | 0.00 | 0.00 | 0.00 | 34 | 1008.4 |
| 20260905230037 | 38 | 154 | 4.8 | 12.9 | 0.00 | 0.00 | 0.00 | 33 | 1008.4 |
| 20260905224537 | 38 | 220 | 3.2 | 11.3 | 0.00 | 0.00 | 0.00 | 34 | 1008.4 |
| 20260905223037 | 38 | 141 | 9.7 | 20.9 | 0.00 | 0.00 | 0.00 | 34 | 1008.4 |
| 20260905221536 | 38 | 88 | 6.4 | 16.1 | 0.00 | 0.00 | 0.00 | 34 | 1008.4 |
| 20260905220033 | 38 | 199 | 6.4 | 19.3 | 0.00 | 0.00 | 0.00 | 33 | 1008.5 |
| 20260905214533 | 38 | 127 | 9.7 | 17.7 | 0.00 | 0.00 | 0.00 | 35 | 1008.6 |
| 20260905213029 | 38 | 152 | 6.4 | 20.9 | 0.00 | 0.00 | 0.00 | 34 | 1008.8 |
| 20260905211527 | 38 | 100 | 3.2 | 19.3 | 0.00 | 0.00 | 0.00 | 35 | 1009.0 |
| 20260905210022 | 38 | 212 | 9.7 | 16.1 | 0.00 | 0.00 | 0.00 | 35 | 1009.2 |
| 20260905204520 | 38 | 152 | 3.2 | 20.9 | 0.00 | 0.00 | 0.00 | 34 | 1009.4 |
| 20260905203017 | 38 | 205 | 6.4 | 16.1 | 0.00 | 0.00 | 0.00 | 34 | 1009.6 |